JST410 YSSY-YBCG

Flight info

Callsign JST410
Flight time 1h 2m
Altitude 37000
Route TESAT H252 OLSEM Y193 BANDA Y43 GREAV DCT GOMOL
Aircraft A320/M-SDE3FGHIRWY/LB1

Departure

Time 2026-05-06 23:49
Airport Sydney Kingsford Smith International Airport (YSSY)

Arrival

Time 2026-05-07 00:52
Airport Gold Coast Airport (YBCG)
Time Latitude Longitude Altitude Speed Heading
2026-05-06 23:19 -33.93411 151.17714 30 ft 0 kts 99°
2026-05-06 23:39 -33.93410 151.17707 30 ft 2 kts 100°
2026-05-06 23:39 -33.93407 151.17683 30 ft 3 kts 100°
2026-05-06 23:40 -33.93403 151.17659 30 ft 3 kts 95°
2026-05-06 23:40 -33.93403 151.17635 30 ft 3 kts 82°
2026-05-06 23:40 -33.93405 151.17614 30 ft 3 kts 109°
2026-05-06 23:40 -33.93395 151.17597 30 ft 3 kts 154°
2026-05-06 23:41 -33.93376 151.17589 30 ft 3 kts 169°
2026-05-06 23:41 -33.93362 151.17586 30 ft 1 kts 170°
2026-05-06 23:41 -33.93346 151.17582 30 ft 3 kts 170°
2026-05-06 23:41 -33.93326 151.17578 30 ft 3 kts 169°
2026-05-06 23:42 -33.93306 151.17573 30 ft 3 kts 169°
2026-05-06 23:42 -33.93294 151.17570 30 ft 0 kts 169°
2026-05-06 23:44 -33.93323 151.17577 30 ft 7 kts 169°
2026-05-06 23:44 -33.93368 151.17548 30 ft 11 kts 242°
2026-05-06 23:44 -33.93443 151.17501 30 ft 14 kts 186°
2026-05-06 23:44 -33.93552 151.17521 29 ft 17 kts 167°
2026-05-06 23:45 -33.93679 151.17555 29 ft 20 kts 168°
2026-05-06 23:45 -33.93826 151.17591 29 ft 23 kts 168°
2026-05-06 23:45 -33.93989 151.17634 28 ft 26 kts 167°
2026-05-06 23:45 -33.94172 151.17684 29 ft 27 kts 167°
2026-05-06 23:46 -33.94339 151.17736 30 ft 25 kts 165°
2026-05-06 23:46 -33.94519 151.17793 30 ft 28 kts 166°
2026-05-06 23:46 -33.94719 151.17845 30 ft 31 kts 168°
2026-05-06 23:46 -33.94909 151.17892 30 ft 23 kts 168°
2026-05-06 23:47 -33.95056 151.17933 30 ft 18 kts 167°
2026-05-06 23:47 -33.95138 151.17879 30 ft 16 kts 250°
2026-05-06 23:47 -33.95152 151.17814 29 ft 7 kts 255°
2026-05-06 23:47 -33.95150 151.17741 28 ft 9 kts 303°
2026-05-06 23:48 -33.95131 151.17730 28 ft 0 kts 345°
2026-05-06 23:48 -33.95052 151.17707 27 ft 43 kts 347°
2026-05-06 23:49 -33.94531 151.17569 30 ft 109 kts 348°
2026-05-06 23:49 -33.93603 151.17327 48 ft 157 kts 344°
2026-05-06 23:49 -33.92534 151.17020 683 ft 158 kts 341°
2026-05-06 23:49 -33.91449 151.16729 1361 ft 161 kts 344°
2026-05-06 23:50 -33.90306 151.16749 1934 ft 179 kts
2026-05-06 23:50 -33.88273 151.19137 2686 ft 233 kts 57°
2026-05-06 23:50 -33.87389 151.20895 3032 ft 263 kts 57°
2026-05-06 23:51 -33.86370 151.22862 3680 ft 283 kts 56°
2026-05-06 23:51 -33.85294 151.24897 4627 ft 290 kts 55°
2026-05-06 23:51 -33.84201 151.26949 5702 ft 293 kts 53°
2026-05-06 23:51 -33.83071 151.28960 6676 ft 296 kts 52°
2026-05-06 23:52 -33.81862 151.31031 7646 ft 300 kts 50°
2026-05-06 23:52 -33.80658 151.33076 8622 ft 302 kts 49°
2026-05-06 23:52 -33.79458 151.35124 9625 ft 303 kts 49°
2026-05-06 23:52 -33.78217 151.37244 10395 ft 314 kts 48°
2026-05-06 23:53 -33.76908 151.39475 10761 ft 335 kts 49°
2026-05-06 23:53 -33.75555 151.41798 11415 ft 344 kts 49°
2026-05-06 23:53 -33.74174 151.44198 12161 ft 351 kts 49°
2026-05-06 23:53 -33.72786 151.46621 12874 ft 357 kts 49°
2026-05-06 23:54 -33.71376 151.49076 13587 ft 363 kts 49°
2026-05-06 23:54 -33.69928 151.51585 14266 ft 369 kts 49°
2026-05-06 23:54 -33.68476 151.54105 14927 ft 373 kts 48°
2026-05-06 23:54 -33.66969 151.56708 15594 ft 377 kts 48°
2026-05-06 23:55 -33.65394 151.59230 16242 ft 376 kts 40°
2026-05-06 23:55 -33.63535 151.61376 16897 ft 370 kts 30°
2026-05-06 23:55 -33.61460 151.63123 17579 ft 368 kts 24°
2026-05-06 23:55 -33.59307 151.64815 18288 ft 371 kts 24°
2026-05-06 23:56 -33.57129 151.66522 18900 ft 374 kts 24°
2026-05-06 23:56 -33.54941 151.68234 19490 ft 377 kts 24°
2026-05-06 23:56 -33.52736 151.69958 20063 ft 382 kts 24°
2026-05-06 23:56 -33.50475 151.71661 20664 ft 380 kts 19°
2026-05-06 23:57 -33.48110 151.72939 21244 ft 372 kts
2026-05-06 23:57 -33.45619 151.73811 21825 ft 370 kts
2026-05-06 23:57 -33.43136 151.74610 22409 ft 372 kts
2026-05-06 23:57 -33.40703 151.75390 22984 ft 374 kts
2026-05-06 23:58 -33.38184 151.76194 23572 ft 376 kts
2026-05-06 23:58 -33.35641 151.77007 24064 ft 379 kts
2026-05-06 23:58 -33.33098 151.77823 24529 ft 380 kts
2026-05-06 23:58 -33.30532 151.78654 25015 ft 382 kts
2026-05-06 23:59 -33.27948 151.79493 25505 ft 384 kts
2026-05-06 23:59 -33.25365 151.80333 25992 ft 386 kts
2026-05-06 23:59 -33.22760 151.81178 26461 ft 388 kts
2026-05-06 23:59 -33.20157 151.82024 26951 ft 389 kts
2026-05-07 00:00 -33.17539 151.82875 27420 ft 391 kts
2026-05-07 00:00 -33.14910 151.83725 27887 ft 393 kts
2026-05-07 00:00 -33.12255 151.84574 28353 ft 395 kts
2026-05-07 00:00 -33.10495 151.85135 28604 ft 396 kts
2026-05-07 00:01 -33.06912 151.86277 29178 ft 400 kts
2026-05-07 00:01 -33.04218 151.87138 29622 ft 403 kts
2026-05-07 00:01 -33.01503 151.88004 30080 ft 405 kts
2026-05-07 00:01 -32.98773 151.88879 30469 ft 407 kts
2026-05-07 00:02 -32.96024 151.89763 30836 ft 410 kts
2026-05-07 00:02 -32.93260 151.90650 31197 ft 412 kts
2026-05-07 00:02 -32.90484 151.91542 31553 ft 415 kts
2026-05-07 00:02 -32.87722 151.92424 31802 ft 419 kts
2026-05-07 00:03 -32.84898 151.93326 32188 ft 420 kts
2026-05-07 00:03 -32.82069 151.94230 32648 ft 421 kts
2026-05-07 00:03 -32.79247 151.95131 33123 ft 420 kts
2026-05-07 00:03 -32.76422 151.96035 33628 ft 420 kts
2026-05-07 00:04 -32.73602 151.96938 34124 ft 419 kts
2026-05-07 00:04 -32.70788 151.97839 34540 ft 418 kts
2026-05-07 00:04 -32.67981 151.98738 34918 ft 419 kts
2026-05-07 00:04 -32.65167 151.99635 35276 ft 419 kts
2026-05-07 00:05 -32.62346 152.00532 35643 ft 420 kts
2026-05-07 00:05 -32.59530 152.01426 36001 ft 420 kts
2026-05-07 00:05 -32.56703 152.02320 36344 ft 420 kts
2026-05-07 00:05 -32.53879 152.03213 36684 ft 421 kts
2026-05-07 00:06 -32.51039 152.04113 36992 ft 422 kts
2026-05-07 00:06 -32.48179 152.05012 37074 ft 428 kts
2026-05-07 00:06 -32.42313 152.06844 37081 ft 444 kts
2026-05-07 00:07 -32.36308 152.08742 37077 ft 447 kts
2026-05-07 00:07 -32.30291 152.10657 37073 ft 448 kts
2026-05-07 00:08 -32.24269 152.12581 37076 ft 448 kts
2026-05-07 00:08 -32.18248 152.14480 37078 ft 447 kts
2026-05-07 00:09 -32.13248 152.16048 37078 ft 447 kts
2026-05-07 00:09 -32.06253 152.18243 37076 ft 448 kts
2026-05-07 00:10 -32.00234 152.20126 37050 ft 447 kts
2026-05-07 00:10 -31.95190 152.21705 37065 ft 448 kts
2026-05-07 00:11 -31.89191 152.23590 37074 ft 448 kts
2026-05-07 00:11 -31.83131 152.25481 37078 ft 448 kts
2026-05-07 00:12 -31.77148 152.27341 37033 ft 448 kts
2026-05-07 00:12 -31.71091 152.29237 37049 ft 447 kts
2026-05-07 00:13 -31.65122 152.31090 37059 ft 447 kts
2026-05-07 00:13 -31.59114 152.32956 37063 ft 447 kts
2026-05-07 00:14 -31.53092 152.34820 37050 ft 447 kts
2026-05-07 00:14 -31.47079 152.36686 37062 ft 447 kts
2026-05-07 00:15 -31.41065 152.38548 37075 ft 447 kts
2026-05-07 00:15 -31.35051 152.40405 37072 ft 446 kts
2026-05-07 00:16 -31.29077 152.42250 37047 ft 446 kts
2026-05-07 00:16 -31.23069 152.44109 37049 ft 446 kts
2026-05-07 00:17 -31.17061 152.45957 37060 ft 446 kts
2026-05-07 00:17 -31.11066 152.47796 37071 ft 446 kts
2026-05-07 00:18 -31.05044 152.49642 37050 ft 447 kts
2026-05-07 00:18 -30.99034 152.51483 37058 ft 447 kts
2026-05-07 00:19 -30.93019 152.53326 37087 ft 447 kts
2026-05-07 00:19 -30.87004 152.55171 37081 ft 447 kts
2026-05-07 00:20 -30.81000 152.57004 37063 ft 447 kts
2026-05-07 00:20 -30.78015 152.58205 37064 ft 459 kts
2026-05-07 00:20 -30.75045 152.59583 37068 ft 460 kts
2026-05-07 00:21 -30.69109 152.62355 37080 ft 460 kts
2026-05-07 00:21 -30.63165 152.65118 37067 ft 460 kts
2026-05-07 00:22 -30.57208 152.67871 37052 ft 462 kts
2026-05-07 00:22 -30.51221 152.70635 37055 ft 463 kts
2026-05-07 00:23 -30.45280 152.73376 37067 ft 458 kts
2026-05-07 00:23 -30.42366 152.74737 37065 ft 445 kts
2026-05-07 00:23 -30.39533 152.76065 37065 ft 436 kts
2026-05-07 00:24 -30.33934 152.78635 37061 ft 431 kts
2026-05-07 00:24 -30.28345 152.81169 37059 ft 431 kts
2026-05-07 00:25 -30.22766 152.83722 37064 ft 432 kts
2026-05-07 00:25 -30.17175 152.86291 37009 ft 432 kts
2026-05-07 00:26 -30.11576 152.88855 36684 ft 433 kts
2026-05-07 00:26 -30.08781 152.90133 36443 ft 431 kts
2026-05-07 00:26 -30.06005 152.91408 36098 ft 426 kts
2026-05-07 00:27 -30.03255 152.92675 35663 ft 424 kts
2026-05-07 00:27 -30.00526 152.93929 35212 ft 422 kts
2026-05-07 00:27 -29.97800 152.95178 34763 ft 420 kts
2026-05-07 00:27 -29.95089 152.96414 34298 ft 418 kts
2026-05-07 00:28 -29.92392 152.97639 33782 ft 416 kts
2026-05-07 00:28 -29.89715 152.98856 33312 ft 412 kts
2026-05-07 00:28 -29.87057 153.00066 32848 ft 409 kts
2026-05-07 00:28 -29.84416 153.01267 32376 ft 406 kts
2026-05-07 00:29 -29.81800 153.02457 31914 ft 404 kts
2026-05-07 00:29 -29.79201 153.03635 31461 ft 401 kts
2026-05-07 00:30 -29.71470 153.07143 30149 ft 395 kts 11°
2026-05-07 00:30 -29.68930 153.08293 29669 ft 391 kts 10°
2026-05-07 00:30 -29.66438 153.09425 29273 ft 387 kts 10°
2026-05-07 00:30 -29.63950 153.10554 28870 ft 383 kts 10°
2026-05-07 00:31 -29.61448 153.11688 28463 ft 380 kts 10°
2026-05-07 00:31 -29.58996 153.12797 28079 ft 377 kts 10°
2026-05-07 00:31 -29.56599 153.13880 27691 ft 374 kts 11°
2026-05-07 00:31 -29.54184 153.14971 27289 ft 371 kts 11°
2026-05-07 00:32 -29.51792 153.16052 26899 ft 368 kts 11°
2026-05-07 00:32 -29.49413 153.17123 26490 ft 366 kts 11°
2026-05-07 00:32 -29.47048 153.18187 26042 ft 363 kts 10°
2026-05-07 00:32 -29.44712 153.19241 25671 ft 360 kts 10°
2026-05-07 00:33 -29.42394 153.20286 25270 ft 358 kts 10°
2026-05-07 00:33 -29.40082 153.21329 24851 ft 356 kts 11°
2026-05-07 00:33 -29.37770 153.22373 24424 ft 356 kts 11°
2026-05-07 00:33 -29.35474 153.23410 23993 ft 355 kts 11°
2026-05-07 00:34 -29.33176 153.24445 23556 ft 355 kts 12°
2026-05-07 00:34 -29.30873 153.25480 23075 ft 353 kts 12°
2026-05-07 00:34 -29.28589 153.26507 22633 ft 351 kts 12°
2026-05-07 00:34 -29.26326 153.27522 22205 ft 349 kts 12°
2026-05-07 00:35 -29.24069 153.28532 21776 ft 347 kts 12°
2026-05-07 00:35 -29.21830 153.29533 21350 ft 345 kts 12°
2026-05-07 00:35 -29.19597 153.30534 20924 ft 343 kts 13°
2026-05-07 00:35 -29.17380 153.31528 20488 ft 342 kts 13°
2026-05-07 00:36 -29.15170 153.32519 20065 ft 341 kts 13°
2026-05-07 00:36 -29.12951 153.33515 19639 ft 341 kts 14°
2026-05-07 00:36 -29.10774 153.34493 19210 ft 340 kts 14°
2026-05-07 00:36 -29.08579 153.35478 18777 ft 340 kts 14°
2026-05-07 00:37 -29.06371 153.36467 18363 ft 340 kts 14°
2026-05-07 00:37 -29.04168 153.37450 17883 ft 339 kts 14°
2026-05-07 00:37 -29.01979 153.38427 17451 ft 337 kts 15°
2026-05-07 00:37 -28.99805 153.39399 17009 ft 335 kts 14°
2026-05-07 00:38 -28.97643 153.40365 16617 ft 332 kts 14°
2026-05-07 00:38 -28.95490 153.41326 16201 ft 330 kts 15°
2026-05-07 00:38 -28.93357 153.42279 15792 ft 329 kts 15°
2026-05-07 00:38 -28.91232 153.43227 15384 ft 328 kts 15°
2026-05-07 00:39 -28.89115 153.44168 14978 ft 326 kts 15°
2026-05-07 00:39 -28.87003 153.45107 14571 ft 325 kts 14°
2026-05-07 00:39 -28.84906 153.46041 14171 ft 323 kts 15°
2026-05-07 00:39 -28.82815 153.46975 13745 ft 322 kts 14°
2026-05-07 00:40 -28.80752 153.47899 13281 ft 311 kts 15°
2026-05-07 00:40 -28.78792 153.48784 12904 ft 297 kts 15°
2026-05-07 00:40 -28.76903 153.49634 12537 ft 285 kts 14°
2026-05-07 00:40 -28.75097 153.50441 12180 ft 274 kts 14°
2026-05-07 00:41 -28.73316 153.51227 11845 ft 275 kts 14°
2026-05-07 00:41 -28.71522 153.52011 11499 ft 276 kts 15°
2026-05-07 00:41 -28.69732 153.52796 11149 ft 277 kts 15°
2026-05-07 00:41 -28.67930 153.53590 10804 ft 278 kts 15°
2026-05-07 00:42 -28.66124 153.54388 10454 ft 279 kts 16°
2026-05-07 00:42 -28.64315 153.55191 10097 ft 280 kts 16°
2026-05-07 00:42 -28.62496 153.56000 9724 ft 281 kts 16°
2026-05-07 00:42 -28.60665 153.56813 9356 ft 281 kts 16°
2026-05-07 00:43 -28.58842 153.57623 8995 ft 281 kts 17°
2026-05-07 00:43 -28.57024 153.58429 8642 ft 281 kts 17°
2026-05-07 00:43 -28.55222 153.59227 8384 ft 277 kts 17°
2026-05-07 00:43 -28.53438 153.60013 8034 ft 277 kts 16°
2026-05-07 00:44 -28.51582 153.60570 7612 ft 270 kts
2026-05-07 00:44 -28.49770 153.60842 7238 ft 261 kts
2026-05-07 00:44 -28.48005 153.61112 6894 ft 251 kts
2026-05-07 00:44 -28.46278 153.61379 6577 ft 243 kts
2026-05-07 00:45 -28.44651 153.61631 6250 ft 235 kts
2026-05-07 00:45 -28.43058 153.61881 5935 ft 226 kts
2026-05-07 00:45 -28.41509 153.62123 5640 ft 225 kts
2026-05-07 00:45 -28.39957 153.62363 5330 ft 225 kts
2026-05-07 00:46 -28.38411 153.62601 5073 ft 223 kts
2026-05-07 00:46 -28.36892 153.62836 5009 ft 218 kts
2026-05-07 00:46 -28.35420 153.63067 4901 ft 209 kts
2026-05-07 00:46 -28.33998 153.63288 4400 ft 205 kts
2026-05-07 00:47 -28.32608 153.63389 3972 ft 194 kts 349°
2026-05-07 00:47 -28.31358 153.62960 3683 ft 184 kts 328°
2026-05-07 00:47 -28.30365 153.62095 3419 ft 178 kts 310°
2026-05-07 00:47 -28.29523 153.61074 3164 ft 177 kts 310°
2026-05-07 00:48 -28.28678 153.60057 2914 ft 178 kts 310°
2026-05-07 00:48 -28.27815 153.59051 2656 ft 177 kts 316°
2026-05-07 00:48 -28.26821 153.58251 2421 ft 172 kts 322°
2026-05-07 00:48 -28.25851 153.57487 2188 ft 166 kts 322°
2026-05-07 00:49 -28.24920 153.56737 1931 ft 161 kts 321°
2026-05-07 00:49 -28.24058 153.55987 1666 ft 150 kts 318°
2026-05-07 00:49 -28.23271 153.55275 1440 ft 141 kts 317°
2026-05-07 00:49 -28.22522 153.54617 1244 ft 133 kts 320°
2026-05-07 00:50 -28.21769 153.54049 982 ft 130 kts 323°
2026-05-07 00:50 -28.21001 153.53501 801 ft 130 kts 326°
2026-05-07 00:50 -28.20226 153.52962 622 ft 130 kts 328°
2026-05-07 00:50 -28.19432 153.52475 501 ft 128 kts 331°
2026-05-07 00:51 -28.18648 153.51989 331 ft 130 kts 326°
2026-05-07 00:51 -28.17874 153.51488 194 ft 127 kts 330°
2026-05-07 00:51 -28.17104 153.50997 45 ft 125 kts 328°
2026-05-07 00:51 -28.16460 153.50577 27 ft 76 kts 330°
2026-05-07 00:52 -28.16192 153.50409 29 ft 32 kts 331°
2026-05-07 00:52 -28.16005 153.50292 29 ft 31 kts 331°
2026-05-07 00:52 -28.15824 153.50179 27 ft 29 kts 332°
2026-05-07 00:52 -28.15662 153.50110 26 ft 19 kts
2026-05-07 00:53 -28.15613 153.50231 26 ft 19 kts 105°
2026-05-07 00:53 -28.15720 153.50330 29 ft 22 kts 150°
2026-05-07 00:53 -28.15861 153.50423 28 ft 25 kts 150°
2026-05-07 00:53 -28.16021 153.50524 27 ft 29 kts 151°
2026-05-07 00:54 -28.16144 153.50599 29 ft 31 kts 151°
2026-05-07 00:54 -28.16388 153.50754 29 ft 22 kts 150°
2026-05-07 00:54 -28.16461 153.50802 27 ft 12 kts 146°
2026-05-07 00:54 -28.16493 153.50895 26 ft 15 kts 98°
2026-05-07 00:55 -28.16559 153.50971 30 ft 16 kts 153°
2026-05-07 00:55 -28.16659 153.51032 30 ft 15 kts 151°
2026-05-07 00:55 -28.16687 153.51094 28 ft 10 kts 64°
2026-05-07 00:55 -28.16658 153.51149 30 ft 6 kts 63°
2026-05-07 00:56 -28.16650 153.51164 28 ft 0 kts 61°